PY2UEP-1 Weather Reports


Display with metric or nautical units.
time (UTC)temp
F
wind
direction
speed
MPH
gust
MPH
rain 1hr
in
rain 24hr
in
rain mn
in
humidity
%
barometer
mb
20260504151045 78 28 5.0 9.0 0.00 0.00 0.00 60 1020.8
20260504150545 77 20 4.0 11.0 0.00 0.00 0.00 59 1020.9
20260504141045 75 57 5.0 10.0 0.00 0.00 0.00 64 1021.5
20260504140545 75 68 5.0 9.0 0.00 0.00 0.00 64 1021.5
20260504130545 71 83 8.0 12.0 0.00 0.00 0.00 68 1022.2
20260504110545 62 104 7.0 13.0 0.00 0.00 0.00 82 1021.5
20260504100545 58 109 7.0 15.0 0.00 0.00 0.00 90 1020.6
20260504081545 58 104 7.0 13.0 0.00 0.00 0.00 89 1019.4
20260504081045 59 103 8.0 15.0 0.00 0.00 0.00 89 1019.4
20260504080545 59 105 9.0 14.0 0.00 0.00 0.00 89 1019.4
20260504050544 60 122 7.0 16.0 0.00 0.00 0.00 84 1020.3
20260504045544 61 119 7.0 14.0 0.00 0.00 0.00 83 1020.3
20260504045044 61 124 7.0 15.0 0.00 0.00 0.00 83 1020.3
20260504044544 61 124 7.0 15.0 0.00 0.00 0.00 83 1020.4
20260504044044 61 121 8.0 16.0 0.00 0.00 0.00 83 1020.4
20260504043544 61 118 8.0 19.0 0.00 0.00 0.00 83 1020.4
20260504043046 61 120 7.0 18.0 0.00 0.00 0.00 83 1020.4
20260504042544 61 125 7.0 16.0 0.00 0.00 0.00 83 1020.4
20260504042044 61 118 7.0 14.0 0.00 0.00 0.00 83 1020.4
20260504041544 61 123 7.0 17.0 0.00 0.00 0.00 82 1020.5
20260504041044 61 125 7.0 18.0 0.00 0.00 0.00 82 1020.5
20260504040544 61 122 7.0 14.0 0.00 0.00 0.00 83 1020.5
20260504040044 61 124 8.0 16.0 0.00 0.00 0.00 82 1020.6
20260504035544 61 125 8.0 20.0 0.00 0.00 0.00 82 1020.5
20260504035044 61 119 8.0 20.0 0.00 0.00 0.00 82 1020.5
20260504034544 61 121 8.0 25.0 0.00 0.00 0.00 82 1020.6
20260504034044 61 125 7.0 18.0 0.00 0.00 0.00 82 1020.6
20260504033544 61 122 7.0 14.0 0.00 0.00 0.00 82 1020.6
20260504033044 61 121 9.0 17.0 0.00 0.00 0.00 82 1020.6
20260504032544 61 120 8.0 17.0 0.00 0.00 0.00 82 1020.7
20260504032045 61 123 9.0 20.0 0.00 0.00 0.00 82 1020.7
20260504031544 61 124 6.0 17.0 0.00 0.00 0.00 82 1020.6
20260504031044 61 127 8.0 19.0 0.00 0.00 0.00 82 1020.8
20260504030544 61 123 7.0 18.0 0.00 0.00 0.00 82 1020.8
20260504030044 62 121 9.0 23.0 0.00 0.00 0.00 82 1020.7
20260504025544 62 118 8.0 19.0 0.00 0.00 0.00 82 1020.7
20260504025044 62 120 7.0 14.0 0.00 0.00 0.00 82 1020.8
20260504024544 62 122 7.0 15.0 0.00 0.00 0.00 82 1020.7
20260504024044 62 121 8.0 20.0 0.00 0.00 0.00 81 1020.7
20260504023544 62 118 8.0 21.0 0.00 0.00 0.00 81 1020.7
20260504023044 62 122 10.0 20.0 0.00 0.00 0.00 81 1020.7
20260504022544 62 122 8.0 18.0 0.00 0.00 0.00 81 1020.7
20260504022044 62 121 8.0 19.0 0.00 0.00 0.00 81 1020.8
20260504021544 62 123 8.0 20.0 0.00 0.00 0.00 80 1020.8
20260504021044 62 120 10.0 23.0 0.00 0.00 0.00 80 1020.7
20260504020544 62 118 8.0 17.0 0.00 0.00 0.00 80 1020.7
20260504020044 63 118 9.0 22.0 0.00 0.00 0.00 80 1020.8
20260504015544 62 122 8.0 20.0 0.00 0.00 0.00 80 1020.7
20260504015044 63 121 8.0 15.0 0.00 0.00 0.00 79 1020.7
20260504014544 63 122 8.0 18.0 0.00 0.00 0.00 79 1020.8
20260504014044 63 121 8.0 19.0 0.00 0.00 0.00 79 1020.7
20260504013544 63 120 10.0 21.0 0.00 0.00 0.00 78 1020.8
20260504013044 63 123 9.0 16.0 0.00 0.00 0.00 78 1020.8
20260504012544 63 118 8.0 15.0 0.00 0.00 0.00 78 1020.9
20260504012044 63 124 8.0 17.0 0.00 0.00 0.00 78 1020.8
20260504011544 64 119 9.0 18.0 0.00 0.00 0.00 77 1020.8
20260504011044 64 115 9.0 20.0 0.00 0.00 0.00 77 1020.9
20260504010544 64 118 9.0 18.0 0.00 0.00 0.00 77 1020.8
20260504010044 64 117 10.0 21.0 0.00 0.00 0.00 77 1020.9
20260504005544 64 118 8.0 22.0 0.00 0.00 0.00 77 1020.9
20260504005044 64 121 9.0 18.0 0.00 0.00 0.00 78 1020.9
20260504004544 64 118 8.0 21.0 0.00 0.00 0.00 78 1020.9
20260504004044 64 122 8.0 18.0 0.00 0.00 0.00 78 1020.9
20260504003544 64 121 8.0 18.0 0.00 0.00 0.00 79 1020.9
20260504003044 64 120 9.0 17.0 0.00 0.00 0.00 79 1020.9
20260504002544 64 122 6.0 14.0 0.00 0.00 0.00 80 1021.0
20260504002044 64 122 6.0 13.0 0.00 0.00 0.00 79 1021.0
20260504001544 64 128 7.0 17.0 0.00 0.00 0.00 80 1021.0
20260504001044 64 128 6.0 12.0 0.00 0.00 0.00 80 1021.0
20260504000544 65 132 6.0 13.0 0.00 0.00 0.00 79 1021.1
20260504000044 65 124 6.0 12.0 0.00 0.00 0.00 79 1021.0
20260503235544 65 122 6.0 14.0 0.00 0.00 0.00 78 1021.0
20260503235044 65 120 8.0 17.0 0.00 0.00 0.00 78 1020.8
20260503234544 65 121 8.0 18.0 0.00 0.00 0.00 78 1020.8
20260503234044 65 124 6.0 14.0 0.00 0.00 0.00 78 1020.7
20260503233544 65 124 6.0 14.0 0.00 0.00 0.00 78 1020.7
20260503233044 65 122 7.0 15.0 0.00 0.00 0.00 78 1020.7
20260503232544 66 125 6.0 12.0 0.00 0.00 0.00 78 1020.6
20260503232044 66 119 8.0 16.0 0.00 0.00 0.00 78 1020.6
20260503231544 66 125 6.0 16.0 0.00 0.00 0.00 78 1020.5
20260503231044 66 124 7.0 15.0 0.00 0.00 0.00 78 1020.4
20260503230544 66 123 6.0 16.0 0.00 0.00 0.00 78 1020.4
20260503230044 66 130 7.0 16.0 0.00 0.00 0.00 78 1020.3
20260503225544 66 120 7.0 13.0 0.00 0.00 0.00 77 1020.3
20260503225044 66 125 7.0 13.0 0.00 0.00 0.00 77 1020.2
20260503224544 66 126 5.0 14.0 0.00 0.00 0.00 77 1020.2
20260503224044 67 125 6.0 11.0 0.00 0.00 0.00 77 1020.2
20260503223544 67 127 6.0 11.0 0.00 0.00 0.00 76 1020.2
20260503223044 67 125 5.0 10.0 0.00 0.00 0.00 76 1020.2
20260503222544 67 126 6.0 14.0 0.00 0.00 0.00 76 1019.9
20260503222044 67 121 6.0 13.0 0.00 0.00 0.00 75 1019.9
20260503221544 67 128 6.0 11.0 0.00 0.00 0.00 75 1019.9
20260503221044 67 126 6.0 15.0 0.00 0.00 0.00 74 1019.9
20260503220544 68 119 6.0 15.0 0.00 0.00 0.00 74 1019.9
20260503220044 68 132 5.0 13.0 0.00 0.00 0.00 74 1019.7
20260503215544 68 127 6.0 14.0 0.00 0.00 0.00 74 1019.6
20260503215044 68 117 7.0 16.0 0.00 0.00 0.00 73 1019.6
20260503214544 68 123 6.0 13.0 0.00 0.00 0.00 74 1019.6
20260503214044 69 119 6.0 13.0 0.00 0.00 0.00 74 1019.7
20260503213544 69 113 7.0 14.0 0.00 0.00 0.00 74 1019.6
20260503213044 69 112 7.0 14.0 0.00 0.00 0.00 73 1019.6
20260503212544 69 113 6.0 14.0 0.00 0.00 0.00 74 1019.6
20260503212044 69 122 6.0 12.0 0.00 0.00 0.00 73 1019.7
20260503211544 70 114 7.0 16.0 0.00 0.00 0.00 73 1019.6
20260503211044 70 114 8.0 18.0 0.00 0.00 0.00 73 1019.6
20260503210544 70 106 6.0 13.0 0.00 0.00 0.00 73 1019.6
20260503210044 70 107 7.0 14.0 0.00 0.00 0.00 72 1019.5
20260503205544 71 113 5.0 12.0 0.00 0.00 0.00 72 1019.5
20260503205044 71 115 6.0 14.0 0.00 0.00 0.00 71 1019.4
20260503204544 71 115 7.0 15.0 0.00 0.00 0.00 70 1019.4
20260503204044 71 109 7.0 16.0 0.00 0.00 0.00 70 1019.3
20260503203544 72 111 8.0 18.0 0.00 0.00 0.00 69 1019.3
20260503203044 72 112 8.0 16.0 0.00 0.00 0.00 69 1019.3
20260503202544 72 107 6.0 11.0 0.00 0.00 0.00 69 1019.3
20260503202044 72 109 8.0 16.0 0.00 0.00 0.00 68 1019.3
20260503201544 73 107 8.0 16.0 0.00 0.00 0.00 68 1019.2
20260503201044 73 102 9.0 14.0 0.00 0.00 0.00 68 1019.2
20260503200544 74 109 8.0 14.0 0.00 0.00 0.00 67 1019.2
20260503200044 74 106 7.0 15.0 0.00 0.00 0.00 66 1019.1
20260503195545 74 117 6.0 11.0 0.00 0.00 0.00 66 1019.1
20260503195044 75 114 7.0 14.0 0.00 0.00 0.00 65 1019.1
20260503194544 75 112 8.0 14.0 0.00 0.00 0.00 65 1019.0
20260503194044 75 102 10.0 16.0 0.00 0.00 0.00 65 1019.1
20260503193544 76 100 9.0 17.0 0.00 0.00 0.00 64 1018.9
20260503193044 76 109 9.0 18.0 0.00 0.00 0.00 62 1018.9
20260503192544 76 104 9.0 20.0 0.00 0.00 0.00 62 1018.9
20260503192044 76 119 6.0 12.0 0.00 0.00 0.00 61 1018.9
20260503191544 77 108 8.0 16.0 0.00 0.00 0.00 62 1018.9
20260503191044 77 106 9.0 16.0 0.00 0.00 0.00 61 1018.9
20260503190544 77 112 7.0 16.0 0.00 0.00 0.00 61 1018.9
20260503190044 77 105 8.0 16.0 0.00 0.00 0.00 61 1018.9
20260503185544 77 103 8.0 15.0 0.00 0.00 0.00 61 1018.9
20260503185044 77 105 9.0 15.0 0.00 0.00 0.00 61 1018.9
20260503184544 77 108 8.0 14.0 0.00 0.00 0.00 61 1019.0
20260503184044 78 111 7.0 12.0 0.00 0.00 0.00 61 1018.8
20260503183544 76 103 7.0 17.0 0.00 0.00 0.00 63 1019.0
20260503183044 77 105 9.0 16.0 0.00 0.00 0.00 62 1019.0
20260503182544 78 106 8.0 18.0 0.00 0.00 0.00 61 1019.0
20260503182044 77 107 8.0 12.0 0.00 0.00 0.00 60 1019.0
20260503181544 78 108 9.0 15.0 0.00 0.00 0.00 58 1019.1
20260503181044 79 119 6.0 12.0 0.00 0.00 0.00 58 1019.1
20260503180544 79 120 5.0 14.0 0.00 0.00 0.00 58 1019.0
20260503180044 79 92 7.0 11.0 0.00 0.00 0.00 58 1019.1
20260503175544 78 107 7.0 11.0 0.00 0.00 0.00 59 1019.1
20260503175044 78 93 7.0 14.0 0.00 0.00 0.00 58 1019.3
20260503174544 78 99 9.0 16.0 0.00 0.00 0.00 59 1019.3
20260503174044 78 94 8.0 16.0 0.00 0.00 0.00 60 1019.4
20260503173544 78 104 8.0 14.0 0.00 0.00 0.00 59 1019.4
20260503173044 77 101 8.0 14.0 0.00 0.00 0.00 60 1019.4
20260503172544 78 108 9.0 17.0 0.00 0.00 0.00 59 1019.5
20260503172044 78 121 7.0 13.0 0.00 0.00 0.00 59 1019.6
20260503171544 78 114 8.0 16.0 0.00 0.00 0.00 59 1019.6
20260503171044 78 118 7.0 14.0 0.00 0.00 0.00 60 1019.6
20260503170543 77 96 9.0 18.0 0.00 0.00 0.00 61 1019.6